User: anonymous   Login
Location: Newark
(47.9297°N, 19.1367°E)
Time: 03:07:45
(UTC+00:00)
Language:

Gurwin Techsat 1B - Orbit

View from above orbital plane
View from above orbital plane
View from above satellite
View from above satellite

Ground track
Ground track

The orbit data is extracted from the following two-line orbital elements,

1 25397U 98043D   20329.12076036 +.00000009 +00000-0 +23289-4 0  9998
2 25397 098.7461 269.5148 0001038 012.0985 348.0218 14.23695285162274
Epoch (UTC): 24 November 2020 02:53:53
Eccentricity: 0.0001038
inclination: 98.7461°
perigee height: 812 km
apogee height: 813 km
right ascension of ascending node: 269.5148°
argument of perigee: 12.0985°
revolutions per day: 14.23695285
mean anomaly at epoch: 348.0218°
orbit number at epoch: 16227

The dashed part of the orbit path shows where the satellite is in the earth's shadow,  

DLR